DECAYED

ASTRO H DEB, 41442 (Decayed)

Orbit data source: Space-Track

ASTRO H DEB, 41442 was space debris in LEO originally from a Japanese launch on Wed, 17 Feb 2016 UTC launched from the Tanegashima Space Center (TNSTA). Debris objects in space refer to the collection of defunct objects orbiting the Earth. Examples of debris include non-operational satellites, rocket bodies, and fragments generated from explosions, collisions, or faulty payload assembly.

Not visible in the next 10 days
Identifier
41442, 2016-012L
Orbit
Decayed
Country
Flag of JPJP / JPN
Related business
Manufacturer
Unknown
Mission
Decayed spacecraft
Bus & Motor
Unknown
Mass
Unknown
Launch date (UTC)
2016-02-17 (10 years ago)
Launch vehicle
Unknown
Launch site
Tanegashima Space Center (TNSTA)
Object type
Payload
Rocket body
Debris
Shape & HBR
Unknown
Radar Cross Section
1.900 m², Large (>1 m²)

Expand to show TLE details & history
Last TLE update: 11 months ago

TLE from 11 months ago
0 ASTRO H DEB
1 41442U 16012L   24292.85535606  .22936264 -40466-5  18819-2 0  9991
2 41442  30.9758 142.5786 0004736 277.6116 190.0773 16.38616980478017
Epoch: 2024-10-18T20:31Z
TLE epoch observation values (Epoch: 2024-10-18T20:31:42.763Z)
Latitude
29.50344°
Longitude
-82.7574°
Altitude
171.645 km
Speed
7.807 km/s
True Right ascension
16h 51m 57s
True Declination
29° 20' 35"
Sunlit
Object was in daylight at epoch
Visualization orbit readout
Latitude
Unknown
Longitude
Unknown
Altitude
Unknown
Speed
Unknown
Apparent Right ascension
Unknown
Apparent Declination
Unknown
Sunlit
N/A
Visualization observer readout
Local Sidereal Time
08:28:51
Azimuth
Unknown
Elevation
Unknown
Doppler factor
Unknown
Orbital elements
Apogee altitude
176.647 km
Perigee altitude
170.441 km
Semi-major axis
6,551.681 km
Eccentricity
0.00047
Inclination
30.9758°
RAAN
142.5786°
Arg. of periapsis
277.6116°
True anomaly
190.06781°
Mean anomaly
190.0773°
Eccentric anomaly
190.07255°
Mean motion
4.09274 °/min
Orbital period
87.96 mins
BSTAR
0.0018819
Loading maneuver chart data...
Computing Atmospheric mass density...
Loading historical data...
Loading historical data...
Loading historical data...
Loading historical data...
Loading historical data...
Loading historical data...
Loading historical data...

Documentation

Showing up to 5 results
|